Jackpot

Texas Poker Multi Jackpot System

Kini Telah hadir Jackpot SUPER ROYAL FLUSH

Kini Telah hadir Jackpot 2000 (khusus table VIP keatas).

Ikutilah global jackpot yang tersedia di system kami, dengan system jackpot terbaru dan pertama di indonesia, anda dapat membeli jackpot dengan harga 100 rupiah saja dan menangkan hadiahnya hingga puluhan juta rupiah.

Jackpot bukanlah suatu keharusan untuk dibeli, namun kami memberikan suatu fitur tambahan untuk member tercinta dari www.pokeronline77.net.

Terdapat tiga pilihan harga jackpot yang bisa anda beli yaitu :100,500,1000 dan 2000(khusus table VIP Keatas) rupiah.

Hadiah dari Multi jackpot system www.pokeronline77.net

  1. full house x 10 harga jackpot yang anda beli.
      (contoh:anda membeli 1000 maka:1000 X10 = 10.000)
  2. four of kind x 250 harga jackpot yang anda beli
      (contoh:anda membeli 1000 maka:1000 X250 = 250.000)
  3. Straight flush x 1200
      (contoh:anda membeli 1000 maka:1000 X1200 = 1.200.000)
  4. Royal flush x 10000 harga jackpot yang anda beli
      (contoh:anda membeli 1000 maka:1000 X10000 = 10.000.000)
  5. SUPER ROYAL FLUSH x 30000 harga jackpot yang anda beli
      (contoh:anda membeli 1000 maka:1000 X30000 = 30.000.000)

Kondisi kartu

  1. full house adalah kondisi kartu dimana kartu anda dan kartu tengah dengan total 7 kartu bisa mendapatkan nilai 5 kartu dengan kombinasi 1 tris(three of kind) dan 1 pair, contoh 3 kartu 10 dan 2 kartu 5
  2. Four of kind adalah kondisi kartu dimana kartu anda dan kartu tengah dengan total 7 kartu bisa mendapatkan nilai 5 kartu dengan kombinasi 4 kartu yang sama jumlah dan 1 kartu apapun juga contoh anda mendapatkan 4 buah kartu angka 3 dan 1 kartu apapun.
  3. Staright flush adalah kondisi kartu dimana kartu anda dan kartu tengah dengan total 7 kartu bisa mendapatkan nilai 5 kartu dengan kombinasi seri / staright dengan kembang yang sama contoh : urutan kartu dari angka 5, 6, 7, 8 , 9 10 dengan kembang yg sama misalnya as hati
  4. Royal flush adalah kondisi kartu dimana kartu anda dan kartu tengah dengan total 7 kartu bisa mendapatkan nilai 5 kartu dengan kombinasi seri / staright dengan kembang yang sama tetapi kartu tersebut haruslah dimulai dari 10. contoh 10, Queen, Jack, King dan aces dengan kembang yang sama
  5. Super Royal flush adalah kondisi kartu dimana Kedua kartu anda digabung dengan 3 kartu pertama meja haruslah royal flush. contoh kartu anda 10,Queen kembang sama dan 3 kartu pertama meja adalah Jack, King dan aces dengan kembang yang sama

Demikian adalah penjelasan dari Multi Jackpot www.pokeronline77.net terima kasih dan selamat bermain salam hoki dari kami

Texas Poker Jackpot Winner

TOP SUPER ROYAL FLUSH
No.TanggalNamaPriceWin
126/05 18:59GACO777Super Royal flush15,000,000
226/05 17:41BULBASAUR8Super Royal flush60,000,000
326/05 13:14DFE88278Super Royal flush60,000,000
426/05 12:38RIAD08Super Royal flush15,000,000
526/05 05:27CYCLOPGG01Super Royal flush3,000,000
TOP ROYAL FLUSH
No.TanggalNamaPriceWin
127/05 06:07TOLOHEORWDRoyal flush5,000,000
227/05 05:49CAHIR45Royal flush10,000,000
327/05 05:46PEUYEUM46Royal flush5,000,000
427/05 05:32POMPA_KANRoyal flush5,000,000
527/05 05:02MSIANTURIRoyal flush2,000,000
TOP STRAIGHT FLUSH
No.TanggalNamaPriceWin
127/05 06:07RAGU123Straight Flush120,000
227/05 06:04QBULLZ37Straight Flush600,000
327/05 06:02RULLYLAHONStraight Flush600,000
427/05 06:02RISAL277Straight Flush1,200,000
527/05 05:59POSANK87Straight Flush600,000
LATEST JACKPOT
No.TanggalNamaPriceWin
127/05 06:10MAJIDTSFull House20,000
227/05 06:10JAHYESFull House10,000
327/05 06:10B7F4DD77Full House1,000
427/05 06:10FERI2718Full House10,000
527/05 06:10NA9488Full House2,000
627/05 06:10HENDY088Full House10,000
727/05 06:10KOMBESS123Full House2,000
827/05 06:10BELGTEMPFull House20,000
927/05 06:10ADC86364Full House5,000
1027/05 06:10FERDIANTO_Full House2,000
1127/05 06:10DODIF140Four Of A Kind500,000
1227/05 06:10BEEBEELEEFull House5,000
1327/05 06:10MHAA_EROTFull House20,000
1427/05 06:10SLARKS88Full House10,000
1527/05 06:09SUSIL4W4T1Full House10,000
1627/05 06:09CB8892A3Full House1,000
1727/05 06:09LARAS31Full House2,000
1827/05 06:09BOTGTHEBOTFull House2,000
1927/05 06:09KRAYON77Full House5,000
2027/05 06:09VIA_79Full House500
2127/05 06:09AKETUKGL9Full House2,000
2227/05 06:09IFIF1717Full House10,000
2327/05 06:09SANTI85Full House5,000
2427/05 06:09D75F37C2Four Of A Kind500,000
2527/05 06:09RAGU123Full House1,000
2627/05 06:09DESA0406Full House5,000
2727/05 06:09YEDRD0FS98Full House2,000
2827/05 06:09ELSCLASICOFull House1,000
2927/05 06:09TYIAS02Full House5,000
3027/05 06:09PSMS1985Full House1,000
3127/05 06:09WONGSOGI09Full House20,000
3227/05 06:09BRAVOO85Full House10,000
3327/05 06:09LAGINAMUAHFull House5,000
3427/05 06:09PT4DBRO29Full House5,000
3527/05 06:09ZEMBUT009Full House5,000
3627/05 06:09KAYMONSFull House1,000
3727/05 06:09YOSIATURFull House5,000
3827/05 06:09DEBLOH123Full House20,000
3927/05 06:09RANGGO00Full House5,000
4027/05 06:09EXTRA_SBRFull House5,000
4127/05 06:09MP4DMIMPIBASAHFull House5,000
4227/05 06:09ES_KUFull House2,000
4327/05 06:09JOKOWI89AFull House2,000
4427/05 06:09U2303RFUWTFull House2,000
4527/05 06:09MVP_Full House1,000
4627/05 06:09AJU_9_4Full House5,000
4727/05 06:09ILLSLICKFull House2,000
4827/05 06:09DEVIN11Full House2,000
4927/05 06:09KARTUHOKY5Full House1,000
5027/05 06:09MYLANDFull House10,000

Domino Multi Jackpot System

Ikutilah global jackpot yang tersedia di system kami, dengan system jackpot terbaru dan pertama di indonesia, anda dapat membeli jackpot dengan harga 100 rupiah saja dan menangkan hadiahnya hingga puluhan juta rupiah.

Jackpot bukanlah suatu keharusan untuk dibeli, namun kami memberikan suatu fitur tambahan untuk member tercinta dari www.pokeronline77.net.

Terdapat tiga pilihan harga jackpot yang bisa anda beli yaitu :100,500 dan 1000 rupiah.

Hadiah dari Multi jackpot system www.pokeronline77.net

  1. Murni Kecil x 50 harga jackpot yang anda beli.
      (contoh:anda membeli 1000 maka:1000 X 50 = 50.000)
  2. Murni Besar x 50 harga jackpot yang anda beli
      (contoh:anda membeli 1000 maka:1000 X 50 = 50.000)
  3. BALAK x 100 harga jackpot yang anda beli
      (contoh:anda membeli 1000 maka:1000 X 100 = 100.000)
  4. ENAM DEWA x 6666 harga jackpot yang anda beli
      (contoh:anda membeli 1000 maka:1000 X 6666 = 6.666.000)

Demikian adalah penjelasan dari Multi Jackpot www.pokeronline77.net terima kasih dan selamat bermain salam hoki dari kami

Domino Jackpot Winner

TOP ENAM DEWA
No.TanggalNamaPriceWin
127/05 05:24UWOK1213murni enam6,666,000
227/05 02:28ANDHY417murni enam3,333,000
327/05 01:57PON991murni enam6,666,000
427/05 01:52KIJOJOBODOmurni enam6,666,000
527/05 01:51ABLACK85murni enam666,600
TOP BALAK
No.TanggalNamaPriceWin
127/05 06:05PADUKONbalak100,000
227/05 06:04JOKOSU21balak100,000
327/05 06:03SOFYAN05balak100,000
427/05 05:57NEZMA123balak50,000
527/05 05:42BUDITMbalak10,000
LATEST JACKPOT
No.TanggalNamaPriceWin
127/05 06:09FEBRHY10murni besar5,000
227/05 06:08FEBBY1992murni kecil5,000
327/05 06:08POLOS_7murni besar5,000
427/05 06:07CEVI91murni besar50,000
527/05 06:07EHMMmurni besar25,000
627/05 06:06MAK332murni besar50,000
727/05 06:05PADUKONbalak100,000
827/05 06:04JOKOSU21balak100,000
927/05 06:04SKABBUmurni besar25,000
1027/05 06:03TOTIImurni kecil25,000
1127/05 06:03SOFYAN05balak100,000
1227/05 06:03LARED120murni besar50,000
1327/05 06:01MOURINHO91murni kecil50,000
1427/05 06:00AN4Mmurni kecil25,000
1527/05 06:00MILO44murni besar25,000
1627/05 05:59XGLBH4FWFXmurni besar50,000
1727/05 05:57NEZMA123balak50,000
1827/05 05:57TALENTA9murni kecil25,000
1927/05 05:56BIGJP89murni besar50,000
2027/05 05:56MOTHER_26murni besar5,000
2127/05 05:55HENS1818murni besar50,000
2227/05 05:55AGUS7705murni kecil50,000
2327/05 05:53MENTENG123murni kecil5,000
2427/05 05:50MAHENDRA85murni kecil50,000
2527/05 05:50PELAKOR50murni besar5,000
2627/05 05:50ARYO10lucky9910,000
2727/05 05:50Y2UT6P72WUmurni besar25,000
2827/05 05:49PELAKOR50murni besar5,000
2927/05 05:49RY825A5J5Emurni besar50,000
3027/05 05:49S4J1KONGmurni besar25,000
3127/05 05:49BAHUBALY99murni besar5,000
3227/05 05:49NETMBITmurni besar25,000
3327/05 05:48LASMOmurni besar50,000
3427/05 05:48MAK332murni besar50,000
3527/05 05:47C8XKRMO9OPmurni besar5,000
3627/05 05:47MILO44murni kecil25,000
3727/05 05:47LASMOmurni besar50,000
3827/05 05:47BUDITMmurni besar5,000
3927/05 05:47LEPANG09murni kecil50,000
4027/05 05:45PARTIJO01murni kecil50,000
4127/05 05:44DWBTUSEI45murni besar50,000
4227/05 05:44MAHENDRA85murni besar50,000
4327/05 05:43LION360murni besar5,000
4427/05 05:43TN35FDBSmurni besar25,000
4527/05 05:42CPONKmurni besar5,000
4627/05 05:42BUDITMbalak10,000
4727/05 05:41EFICK11murni besar25,000
4827/05 05:40BIGJP89murni kecil25,000
4927/05 05:40M99MLMbalak100,000
5027/05 05:39KONYAL79murni kecil5,000

Ceme Multi Jackpot System

Jackpot dilihat dari gabungan kartu pemain dengan kartu bandar. Bandar harus membeli jackpot sebanyak jumlah player yang sedang duduk. Sebagai contoh bila terdapat 3 pemain duduk bermain, dan bandar memutuskan untuk membeli jackpot Rp 1.000, maka pada periode tersebut bandar akan membeli jackpot sebanyak 3xRp1.000 = Rp3.000.

Jackpot bukanlah suatu keharusan untuk dibeli, namun kami memberikan suatu fitur tambahan untuk member tercinta dari www.pokeronline77.net.

Terdapat tiga pilihan harga jackpot yang bisa anda beli yaitu :100,500 dan 1000 rupiah.

Hadiah dari Multi jackpot system www.pokeronline77.net

  1. Murni Kecil x 50 harga jackpot yang anda beli.
      (contoh:anda membeli 1000 maka:1000 X 50 = 50.000)
  2. Murni Besar x 50 harga jackpot yang anda beli
      (contoh:anda membeli 1000 maka:1000 X 50 = 50.000)
  3. BALAK x 200 harga jackpot yang anda beli
      (contoh:anda membeli 1000 maka:1000 X 200 = 200.000)
  4. ENAM DEWA x 6666 harga jackpot yang anda beli
      (contoh:anda membeli 1000 maka:1000 X 6666 = 6.666.000)

Demikian adalah penjelasan dari Multi Jackpot www.pokeronline77.net terima kasih dan selamat bermain salam hoki dari kami

Ceme Jackpot Winner

TOP ENAM DEWA
No.TanggalNamaPriceWin
127/05 05:43F4J4R3murni enam6,666,000
227/05 05:43DWIKUR87murni enam6,666,000
327/05 05:38ARICIVIXmurni enam6,666,000
427/05 05:22TAYPAK08murni enam6,666,000
527/05 05:15ABCD1988murni enam666,600
TOP BALAK
No.TanggalNamaPriceWin
127/05 06:09UPIL69balak20,000
227/05 06:07CHIPEKObalak200,000
327/05 06:07HARSONO16balak200,000
427/05 06:07SEPATU75balak100,000
527/05 06:06TRIYONO81balak200,000
LATEST JACKPOT
No.TanggalNamaPriceWin
127/05 06:10BENIABEN95murni kecil50,000
227/05 06:10EDAN4murni kecil25,000
327/05 06:10CAAEDDD4murni kecil5,000
427/05 06:09UPIL69balak20,000
527/05 06:09SKNETmurni kecil5,000
627/05 06:09JEFRRY11murni besar50,000
727/05 06:09LINGGARD2murni besar50,000
827/05 06:09RAIISYAmurni kecil25,000
927/05 06:09BONAPA24murni kecil50,000
1027/05 06:09AJENG6363murni kecil50,000
1127/05 06:09USA61murni besar50,000
1227/05 06:09GARANmurni kecil25,000
1327/05 06:09NIKEVmurni kecil25,000
1427/05 06:09B4N6K3QQmurni kecil25,000
1527/05 06:09UMAR006murni kecil50,000
1627/05 06:09BB0FED20murni kecil50,000
1727/05 06:09ANDEL7murni kecil50,000
1827/05 06:09DERIY2004murni kecil5,000
1927/05 06:09O8FFPRXET1murni kecil25,000
2027/05 06:09DFD2DF45murni kecil5,000
2127/05 06:08AHMED89murni besar50,000
2227/05 06:08BULL_77murni besar50,000
2327/05 06:08AEDIHQQmurni kecil5,000
2427/05 06:08IWAK4Y4Mmurni kecil50,000
2527/05 06:08EDHIEFALSmurni kecil25,000
2627/05 06:08ALAMEHONG2murni kecil50,000
2727/05 06:08MASBRO990murni kecil25,000
2827/05 06:08ELVINA11murni kecil50,000
2927/05 06:08BAGASS78murni kecil5,000
3027/05 06:08MBOISBOSmurni besar50,000
3127/05 06:08ADYKSAYS23murni besar50,000
3227/05 06:07CHIPEKObalak200,000
3327/05 06:07IWAK4Y4Mmurni kecil50,000
3427/05 06:07EDHIEFALSmurni kecil5,000
3527/05 06:07EGOHOKI777murni kecil50,000
3627/05 06:07LINDA_1234murni kecil50,000
3727/05 06:07JEHANUmurni kecil50,000
3827/05 06:07MARBUNTRIOmurni kecil50,000
3927/05 06:07YQ1B2NY1E8murni kecil50,000
4027/05 06:07HARSONO16balak200,000
4127/05 06:07SEPATU75balak100,000
4227/05 06:07BOMPANCI99murni kecil5,000
4327/05 06:07T0PZHZNAUWmurni besar50,000
4427/05 06:07BURNE88murni besar50,000
4527/05 06:06TRIYONO81balak200,000
4627/05 06:06KI888HObalak200,000
4727/05 06:06DEPOCASINObalak20,000
4827/05 06:06AJENG6363murni besar50,000
4927/05 06:06JONGNAMmurni besar5,000
5027/05 06:06AJENG6363balak200,000